Regional Weather Roundup
Issued by NWS

Home | Current Version | Previous Version | Text Only | Print | Product List | Glossary On
Versions: 1 2 3 4 5 6 7 8 9 10 11 12 13 14 15 16 17 18 19 20 21 22 23 24 25 26 27 28 29 30 31 32 33 34 35 36 37 38 39 40 41 42 43 44 45 46 47 48 49 50
000
ASUS43 KLMK 080410
RWRKY
KENTUCKY REGIONAL WEATHER ROUNDUP
NATIONAL WEATHER SERVICE LOUISVILLE KY
1100 PM EST SUN FEB 07 2016

NOTE "FAIR" INDICATES FEW OR NO CLOUDS BELOW 12,000 FEET
WITH NO SIGNIFICANT WEATHER AND/OR OBSTRUCTIONS TO VISIBILITY.

KYZ001>023-026-027-061>063-070>075-080500-
WESTERN AND SOUTH CENTRAL KENTUCKY

CITY           SKY/WX    TMP DP  RH WIND       PRES   REMARKS
PADUCAH        LGT RAIN  47  33  58 W18G25    29.90R
HENDERSON      CLOUDY    45  32  61 W8        29.86S
OWENSBORO      CLOUDY    48  33  56 W8        29.85S
HOPKINSVILLE   CLOUDY    48  29  48 SW12      29.87F
BOWLING GREEN  CLOUDY    47  23  38 SW9       29.88F
GLASGOW        CLOUDY    41  23  47 SW3       29.88S
$$

KYZ024-025-028>034-038-045-046-053-080500-
NORTH CENTRAL KENTUCKY

CITY           SKY/WX    TMP DP  RH WIND       PRES   REMARKS
LOUISVILLE/SDF CLOUDY    49  23  36 SW8       29.80F
LOUISVILLE/LOU CLOUDY    48  23  37 S6        29.81F
FORT KNOX      CLOUDY    45  24  44 S8        29.80F
$$

KYZ035>037-039>044-047>052-055>060-089>105-080500-
NORTHEAST KENTUCKY

CITY           SKY/WX    TMP DP  RH WIND       PRES   REMARKS
LEXINGTON      CLOUDY    42  22  44 S9        29.84F
COVINGTON      CLOUDY    45  22  40 S9        29.79F
FRANKFORT      CLOUDY    43  21  41 S6        29.82F
$$

KYZ054-064>069-076>088-106>120-080500-
SOUTHEAST KENTUCKY

CITY           SKY/WX    TMP DP  RH WIND       PRES   REMARKS
JACKSON        CLOUDY    42  20  41 SW5       29.87F
LONDON         PTCLDY    39  21  48 S3        29.89F
SOMERSET       CLOUDY    37  23  56 S3        29.90F
MIDDLESBORO    CLEAR     30  27  86 CALM      29.93F
MONTICELLO     PTCLDY    31  26  82 VRB7      29.91F WCI  24
$$




USA.gov is the U.S. government's official web portal to all federal, state and local government web resources and services.